Raduga

operational
NORAD ID: 11708 Int'l Des: 1980-016 Owner: GUKOSR Country: SU
HEOCIRCULAR

关于 Raduga

正在加载描述...

实时位置

正在加载3D地球...

即将过境

高度历史

Altitude vs Time

uPlot chart will show altitude changes over time

两行轨道根数

1 11708U 80016A 26062.64295795 -.00000097 00000-0 00000-0 0 9992
2 11708 5.9753 287.6325 0002645 341.9713 198.8175 1.00199189121108
Epoch: Mar 3, 2026 • Age: 27 hours

当前状态

高度 35795.6 km
速度 3.07 km/s
星下点 -0.79°S, 75.51°E
发射日期 Feb 20, 1980
运行时间 46 years
类型 other

技术详情

分类 Payload
质量 1965.00 kg
干质量 1800.00 kg
总质量 1965.00 kg
长度 5.50 m
直径 2.50 m
跨度 9.50 m
形状 Step Cyl + 2 Pan
制造商 NPOPM
平台类型 Raduga
阶段状态 In Orbit
所有者/国家 GUKOSR/SU

大型星座

Loading constellations...